Date String (YYYY-MM-DD hh:mm:ss) UTC,Instrument flags,Ambient pressure (hPa),Sample flow (lpm),Bypass flow (lpm),Sample temperature (°C),Ambient temperature (°C),ASC tube jacket temperature (°C),LED temperature (°C),Box temperature (°C),Sample RH (%),Span deviation,Mass concentration (μg/m³),Mass concentration (μg/m³),Mass concentration (μg/m³)
DateTimeUTC,F1_M11,P_M11,Q1_M11,Q2_M11,T1_M11,T2_M11,T3_M11,T4_M11,T5_M11,U1_M11,ZSPAN_M11,X0_M11,X2_M11,X1_M11
2021-08-28 13:00:00,,0826.4,5.00,0.00,30.1,29.1,00.0,39.1,31.9,15.0,0000.9,0007.88,0004.40,0004.01
2021-08-28 13:01:00,,0826.4,5.00,0.00,30.1,29.1,00.0,39.1,31.9,15.0,0000.9,0007.86,0004.40,0004.02
2021-08-28 13:02:00,,0826.4,5.00,0.00,30.2,29.2,00.0,39.1,31.9,15.0,0000.7,0007.83,0004.44,0004.05
2021-08-28 13:03:00,,0826.4,5.00,0.00,30.2,29.2,00.0,39.1,32.0,14.9,0001.0,0007.80,0004.47,0004.05
2021-08-28 13:04:00,,0826.4,5.00,0.00,30.2,29.2,00.0,39.2,32.0,14.9,0001.3,0007.80,0004.46,0004.06
2021-08-28 13:05:00,,0826.4,5.00,0.00,30.2,29.3,00.0,39.2,32.0,14.9,0000.8,0007.97,0004.44,0004.07
2021-08-28 13:06:00,,0826.4,4.98,0.00,30.2,29.3,00.0,39.2,32.0,14.9,0000.7,0008.79,0004.43,0004.07
2021-08-28 13:07:00,,0826.4,5.01,0.00,30.2,28.0,00.0,39.2,31.7,15.0,0000.2,0009.19,0004.46,0004.09
2021-08-28 13:08:00,,0826.4,5.00,0.00,30.0,26.8,00.0,39.2,31.4,16.1,-000.0,0009.15,0004.50,0004.09
2021-08-28 13:09:00,,0826.4,4.99,0.00,30.0,26.9,00.0,39.2,31.4,16.2,0000.2,0009.01,0004.51,0004.10
2021-08-28 13:10:00,,0826.4,5.01,0.00,29.9,27.3,00.0,39.1,31.4,16.0,0000.7,0009.01,0004.49,0004.09
2021-08-28 13:11:00,,0826.5,5.01,0.00,29.9,27.6,00.0,39.1,31.4,16.8,0000.5,0009.10,0004.49,0004.08
2021-08-28 13:12:00,,0826.5,5.00,0.00,29.9,27.9,00.0,39.1,31.5,16.9,0000.3,0009.07,0004.47,0004.07
2021-08-28 13:13:00,,0826.4,5.00,0.00,29.9,28.1,00.0,39.1,31.5,16.5,0000.3,0009.02,0004.43,0004.04
2021-08-28 13:14:00,,0826.5,5.00,0.00,29.9,28.3,00.0,39.0,31.6,15.9,0000.7,0008.92,0004.38,0004.03
2021-08-28 13:15:00,,0826.5,5.01,0.00,29.9,28.5,00.0,39.0,31.6,15.7,0001.1,0009.05,0004.37,0004.03
2021-08-28 13:16:00,,0826.5,5.00,0.00,29.9,28.6,00.0,39.0,31.7,15.5,0001.6,0009.20,0004.36,0004.01
2021-08-28 13:17:00,,0826.5,5.00,0.00,29.9,28.7,00.0,39.0,31.7,15.5,0001.8,0008.39,0004.36,0004.01
2021-08-28 13:18:00,,0826.5,5.01,0.00,30.0,28.8,00.0,39.0,31.7,15.5,0002.2,0008.48,0004.36,0004.01
2021-08-28 13:19:00,,0826.5,4.99,0.00,30.0,28.9,00.0,39.1,31.8,15.3,0002.2,0008.43,0004.31,0004.00
2021-08-28 13:20:00,,0826.5,5.00,0.00,30.0,29.0,00.0,39.1,31.7,15.3,0002.1,0008.42,0004.29,0003.99
2021-08-28 13:21:00,,0826.5,5.00,0.00,30.0,29.0,00.0,39.1,31.8,15.8,0001.8,0008.33,0004.29,0003.99
2021-08-28 13:22:00,,0826.5,5.00,0.00,30.1,29.1,00.0,39.1,31.8,16.6,0002.1,0008.17,0004.25,0003.98
2021-08-28 13:23:00,,0826.5,5.00,0.00,30.1,29.1,00.0,39.1,31.9,15.8,0002.2,0008.24,0004.26,0003.98
2021-08-28 13:24:00,,0826.5,4.99,0.00,30.1,29.2,00.0,39.1,31.9,15.4,0002.5,0009.18,0004.27,0003.98
2021-08-28 13:25:00,,0826.6,5.01,0.00,30.1,29.2,00.0,39.1,31.9,15.2,0002.1,0009.38,0004.30,0003.97
2021-08-28 13:26:00,,0826.6,5.00,0.00,30.1,29.3,00.0,39.1,31.9,16.7,0001.8,0009.31,0004.31,0003.96
2021-08-28 13:27:00,,0826.5,4.99,0.00,30.2,29.3,00.0,39.2,32.0,17.7,0001.8,0008.97,0004.34,0003.97
2021-08-28 13:28:00,,0826.6,5.00,0.00,30.2,29.3,00.0,39.2,32.0,18.0,0001.6,0009.21,0004.38,0003.97
2021-08-28 13:29:00,,0826.6,5.00,0.00,30.2,29.3,00.0,39.2,32.0,17.4,0001.7,0009.04,0004.41,0003.97
2021-08-28 13:30:00,,0826.6,4.99,0.00,30.2,28.1,00.0,39.2,31.7,17.7,0001.9,0009.00,0004.42,0003.95
2021-08-28 13:31:00,,0826.6,5.00,0.00,30.0,26.2,00.0,39.2,31.3,17.3,0001.6,0009.02,0004.42,0003.95
2021-08-28 13:32:00,,0826.6,5.00,0.00,29.9,26.1,00.0,39.1,31.2,17.8,0001.2,0009.30,0004.46,0003.95
2021-08-28 13:33:00,,0826.7,5.01,0.00,29.8,26.5,00.0,39.1,31.2,18.4,0001.0,0009.39,0004.50,0003.96
2021-08-28 13:34:00,,0826.7,5.00,0.00,29.7,27.0,00.0,39.0,31.3,18.3,0001.0,0009.42,0004.50,0003.96
2021-08-28 13:35:00,,0826.6,5.01,0.00,29.7,27.4,00.0,39.0,31.3,18.6,0001.3,0008.50,0004.50,0003.95
2021-08-28 13:36:00,,0826.7,5.00,0.00,29.7,27.7,00.0,39.0,31.4,18.7,0001.3,0008.59,0004.50,0003.97
2021-08-28 13:37:00,,0826.7,4.98,0.00,29.7,28.0,00.0,39.0,31.4,18.7,0001.4,0008.73,0004.50,0003.97
2021-08-28 13:38:00,,0826.6,5.01,0.00,29.8,28.2,00.0,38.9,31.4,18.5,0001.6,0009.55,0004.47,0003.96
2021-08-28 13:39:00,,0826.7,4.99,0.00,29.8,28.3,00.0,38.9,31.5,18.0,0000.3,0009.82,0004.43,0003.96
2021-08-28 13:40:00,,0826.7,5.00,0.00,29.8,28.5,00.0,38.9,31.5,17.7,0000.0,0010.37,0004.41,0003.96
2021-08-28 13:41:00,,0826.7,5.00,0.00,29.8,28.6,00.0,38.9,31.6,17.7,0000.0,0010.48,0004.44,0003.98
2021-08-28 13:42:00,,0826.7,5.02,0.00,29.8,28.7,00.0,38.9,31.6,17.7,0000.0,0010.85,0004.48,0003.99
2021-08-28 13:43:00,,0826.7,4.99,0.00,29.9,28.8,00.0,39.0,31.7,18.0,0000.0,0011.00,0004.50,0004.00
2021-08-28 13:44:00,,0826.7,5.01,0.00,29.9,28.9,00.0,39.0,31.7,17.7,0000.0,0011.37,0004.52,0004.01
2021-08-28 13:45:00,,0826.7,5.01,0.00,29.9,28.9,00.0,39.0,31.7,17.2,0000.0,0011.49,0004.55,0004.02
2021-08-28 13:46:00,,0826.7,5.00,0.00,29.9,29.0,00.0,39.0,31.8,17.2,0000.0,0011.48,0004.56,0004.04
2021-08-28 13:47:00,,0826.7,5.00,0.00,30.0,29.0,00.0,39.0,31.8,17.5,0000.0,0011.19,0004.58,0004.06
2021-08-28 13:48:00,,0826.7,5.01,0.00,30.0,29.0,00.0,39.0,31.8,17.7,0000.3,0011.26,0004.62,0004.09
2021-08-28 13:49:00,,0826.7,5.00,0.00,30.0,29.0,00.0,39.0,31.8,17.2,0000.2,0010.50,0004.65,0004.11
2021-08-28 13:50:00,,0826.7,5.00,0.00,30.0,29.1,00.0,39.1,31.9,17.0,0000.4,0010.05,0004.71,0004.15
2021-08-28 13:51:00,,0826.8,4.99,0.00,30.0,29.1,00.0,39.1,31.9,16.6,0000.6,0009.63,0004.78,0004.20
2021-08-28 13:52:00,,0826.8,5.01,0.00,30.1,29.1,00.0,39.1,31.9,16.9,0000.6,0009.90,0004.80,0004.26
2021-08-28 13:53:00,,0826.8,5.00,0.00,30.1,29.2,00.0,39.1,31.9,17.4,0001.1,0009.61,0004.84,0004.33
2021-08-28 13:54:00,,0826.8,4.99,0.00,30.1,29.2,00.0,39.1,32.0,17.9,0001.2,0009.42,0004.89,0004.39
2021-08-28 13:55:00,,0826.8,5.00,0.00,30.1,29.2,00.0,39.2,32.0,18.2,0000.7,0009.36,0004.96,0004.46
2021-08-28 13:56:00,,0826.8,5.02,0.00,30.2,29.3,00.0,39.2,32.0,18.4,0000.8,0009.67,0005.00,0004.53
2021-08-28 13:57:00,,0826.8,5.00,0.00,30.2,29.1,00.0,39.2,32.0,18.5,0001.2,0009.85,0005.09,0004.59
2021-08-28 13:58:00,,0826.7,5.00,0.00,30.1,27.5,00.0,39.2,31.5,18.6,0001.7,0010.04,0005.18,0004.67
2021-08-28 13:59:00,,0826.7,5.00,0.00,29.9,26.2,00.0,39.1,31.2,18.9,0001.5,0009.99,0005.28,0004.75
